| time (UTC) | temp C | wind direction | speed KPH | gust KPH | rain 1hr cm | rain 24hr cm | rain mn cm | humidity % | barometer mb |
| 20260503050417 | 16 | 150 | 9.7 | 11.3 | 0.00 | 0.00 | 0.00 | 38 | 1011.7 |
| 20260503045915 | 16 | 129 | 6.4 | 9.7 | 0.00 | 0.00 | 0.00 | 40 | 1011.7 |
| 20260503045412 | 16 | 96 | 8.0 | 9.7 | 0.00 | 0.00 | 0.00 | 41 | 1011.4 |
| 20260503044908 | 16 | 28 | 3.2 | 8.0 | 0.00 | 0.00 | 0.00 | 40 | 1011.1 |
| 20260503044405 | 17 | 289 | 4.8 | 8.0 | 0.00 | 0.00 | 0.00 | 38 | 1011.1 |
| 20260503043903 | 17 | 262 | 4.8 | 4.8 | 0.00 | 0.00 | 0.00 | 37 | 1011.3 |
| 20260503043359 | 16 | 148 | 4.8 | 9.7 | 0.00 | 0.00 | 0.00 | 39 | 1011.4 |
| 20260503042855 | 16 | 170 | 6.4 | 6.4 | 0.00 | 0.00 | 0.00 | 41 | 1011.4 |
| 20260503042352 | 17 | 4 | 3.2 | 8.0 | 0.00 | 0.00 | 0.00 | 40 | 1011.4 |
| 20260503041848 | 17 | 334 | 6.4 | 11.3 | 0.00 | 0.00 | 0.00 | 39 | 1011.3 |
| 20260503041345 | 17 | 349 | 6.4 | 6.4 | 0.00 | 0.00 | 0.00 | 39 | 1011.3 |
| 20260503040843 | 17 | 35 | 4.8 | 4.8 | 0.00 | 0.00 | 0.00 | 38 | 1011.2 |
| 20260503040341 | 17 | 103 | 0.0 | 4.8 | 0.00 | 0.00 | 0.00 | 38 | 1011.0 |
| 20260503035837 | 17 | 251 | 4.8 | 8.0 | 0.00 | 0.00 | 0.00 | 38 | 1011.2 |
| 20260503035334 | 17 | 288 | 4.8 | 8.0 | 0.00 | 0.00 | 0.00 | 39 | 1011.4 |
| 20260503034831 | 17 | 249 | 9.7 | 11.3 | 0.00 | 0.00 | 0.00 | 36 | 1011.2 |
| 20260503034329 | 18 | 187 | 4.8 | 4.8 | 0.00 | 0.00 | 0.00 | 34 | 1011.2 |
| 20260503033826 | 18 | 50 | 4.8 | 9.7 | 0.00 | 0.00 | 0.00 | 33 | 1010.9 |
| 20260503033323 | 18 | 7 | 4.8 | 14.5 | 0.00 | 0.00 | 0.00 | 35 | 1010.4 |
| 20260503032821 | 18 | 347 | 12.9 | 29.0 | 0.00 | 0.00 | 0.00 | 35 | 1010.2 |
| 20260503032320 | 17 | 327 | 20.9 | 29.0 | 0.00 | 0.00 | 0.00 | 37 | 1010.2 |
| 20260503031816 | 18 | 35 | 12.9 | 32.2 | 0.00 | 0.00 | 0.00 | 35 | 1010.3 |
| 20260503031315 | 17 | 340 | 22.5 | 38.6 | 0.00 | 0.00 | 0.00 | 38 | 1010.4 |
| 20260503030811 | 18 | 319 | 14.5 | 24.1 | 0.00 | 0.00 | 0.00 | 35 | 1010.8 |
| 20260503030307 | 18 | 329 | 8.0 | 12.9 | 0.00 | 0.00 | 0.00 | 36 | 1010.8 |
| 20260503025804 | 18 | 348 | 9.7 | 11.3 | 0.00 | 0.00 | 0.00 | 35 | 1010.9 |
| 20260503025301 | 18 | 304 | 8.0 | 9.7 | 0.00 | 0.00 | 0.00 | 36 | 1011.0 |
| 20260503024758 | 18 | 325 | 1.6 | 4.8 | 0.00 | 0.00 | 0.00 | 35 | 1011.1 |
| 20260503024255 | 18 | 294 | 3.2 | 3.2 | 0.00 | 0.00 | 0.00 | 33 | 1010.6 |
| 20260503023752 | 18 | 114 | 3.2 | 4.8 | 0.00 | 0.00 | 0.00 | 33 | 1010.9 |
| 20260503023249 | 19 | 160 | 6.4 | 14.5 | 0.00 | 0.00 | 0.00 | 32 | 1010.6 |
| 20260503022745 | 19 | 129 | 12.9 | 16.1 | 0.00 | 0.00 | 0.00 | 31 | 1010.8 |
| 20260503022240 | 20 | 183 | 11.3 | 14.5 | 0.00 | 0.00 | 0.00 | 28 | 1010.4 |
| 20260503021737 | 18 | 244 | 11.3 | 12.9 | 0.00 | 0.00 | 0.00 | 36 | 1010.4 |
| 20260503021233 | 18 | 217 | 11.3 | 17.7 | 0.00 | 0.00 | 0.00 | 34 | 1010.4 |
| 20260503020731 | 18 | 216 | 8.0 | 12.9 | 0.00 | 0.00 | 0.00 | 35 | 1010.6 |
| 20260503020228 | 18 | 288 | 8.0 | 12.9 | 0.00 | 0.00 | 0.00 | 34 | 1010.6 |
| 20260503015725 | 19 | 0 | 1.6 | 8.0 | 0.00 | 0.00 | 0.00 | 33 | 1010.6 |
| 20260503015222 | 19 | 295 | 6.4 | 20.9 | 0.00 | 0.00 | 0.00 | 33 | 1010.8 |
| 20260503014717 | 18 | 0 | 0.0 | 4.8 | 0.00 | 0.00 | 0.00 | 36 | 1010.6 |
| 20260503014216 | 18 | 262 | 8.0 | 11.3 | 0.00 | 0.00 | 0.00 | 36 | 1010.5 |
| 20260503013712 | 18 | 266 | 4.8 | 9.7 | 0.00 | 0.00 | 0.00 | 35 | 1010.3 |
| 20260503013210 | 18 | 253 | 8.0 | 12.9 | 0.00 | 0.00 | 0.00 | 36 | 1010.4 |
| 20260503012708 | 19 | 249 | 17.7 | 17.7 | 0.00 | 0.00 | 0.00 | 34 | 1010.3 |
| 20260503012204 | 19 | 252 | 11.3 | 17.7 | 0.00 | 0.00 | 0.00 | 34 | 1010.2 |
| 20260503011701 | 20 | 287 | 14.5 | 14.5 | 0.00 | 0.00 | 0.00 | 30 | 1010.2 |
| 20260503011158 | 20 | 293 | 12.9 | 22.5 | 0.00 | 0.00 | 0.00 | 29 | 1010.3 |
| 20260503010654 | 20 | 291 | 14.5 | 14.5 | 0.00 | 0.00 | 0.00 | 31 | 1010.3 |
| 20260503010151 | 20 | 270 | 6.4 | 9.7 | 0.00 | 0.00 | 0.00 | 30 | 1010.3 |
| 20260503005648 | 20 | 276 | 11.3 | 17.7 | 0.00 | 0.00 | 0.00 | 30 | 1010.3 |
| 20260503005145 | 20 | 281 | 19.3 | 19.3 | 0.00 | 0.00 | 0.00 | 31 | 1010.1 |
| 20260503004642 | 20 | 128 | 8.0 | 27.4 | 0.00 | 0.00 | 0.00 | 29 | 1010.3 |
| 20260503004140 | 20 | 326 | 6.4 | 14.5 | 0.00 | 0.00 | 0.00 | 31 | 1010.5 |
| 20260503003637 | 20 | 264 | 8.0 | 19.3 | 0.00 | 0.00 | 0.00 | 31 | 1010.6 |
| 20260503003134 | 20 | 255 | 8.0 | 17.7 | 0.00 | 0.00 | 0.00 | 28 | 1010.5 |
| 20260503002631 | 20 | 270 | 11.3 | 24.1 | 0.00 | 0.00 | 0.00 | 28 | 1010.4 |
| 20260503002128 | 20 | 245 | 11.3 | 14.5 | 0.00 | 0.00 | 0.00 | 28 | 1010.9 |
| 20260503001624 | 20 | 144 | 8.0 | 35.4 | 0.00 | 0.00 | 0.00 | 29 | 1011.1 |
| 20260503001121 | 20 | 180 | 11.3 | 17.7 | 0.00 | 0.00 | 0.00 | 28 | 1010.9 |
| 20260503000618 | 20 | 233 | 6.4 | 12.9 | 0.00 | 0.00 | 0.00 | 28 | 1010.6 |
| 20260503000115 | 20 | 240 | 8.0 | 12.9 | 0.00 | 0.00 | 0.00 | 28 | 1010.6 |
| 20260502235612 | 20 | 230 | 9.7 | 17.7 | 0.00 | 0.00 | 0.00 | 29 | 1010.6 |
| 20260502235110 | 20 | 246 | 6.4 | 12.9 | 0.00 | 0.00 | 0.00 | 29 | 1010.6 |
| 20260502234605 | 21 | 225 | 6.4 | 19.3 | 0.00 | 0.00 | 0.00 | 27 | 1010.6 |
| 20260502234104 | 21 | 242 | 14.5 | 17.7 | 0.00 | 0.00 | 0.00 | 27 | 1010.5 |
| 20260502233604 | 20 | 210 | 11.3 | 27.4 | 0.00 | 0.00 | 0.00 | 27 | 1010.8 |
| 20260502233101 | 21 | 235 | 8.0 | 24.1 | 0.00 | 0.00 | 0.00 | 25 | 1010.6 |
| 20260502232557 | 21 | 188 | 19.3 | 22.5 | 0.00 | 0.00 | 0.00 | 25 | 1010.6 |
| 20260502232055 | 21 | 136 | 27.4 | 27.4 | 0.00 | 0.00 | 0.00 | 25 | 1010.5 |
| 20260502231551 | 21 | 181 | 9.7 | 35.4 | 0.00 | 0.00 | 0.00 | 24 | 1010.6 |
| 20260502231049 | 22 | 162 | 19.3 | 25.7 | 0.00 | 0.00 | 0.00 | 24 | 1010.9 |
| 20260502230547 | 22 | 182 | 17.7 | 29.0 | 0.00 | 0.00 | 0.00 | 24 | 1010.6 |
| 20260502230045 | 22 | 180 | 6.4 | 17.7 | 0.00 | 0.00 | 0.00 | 24 | 1010.9 |
| 20260502225540 | 22 | 148 | 8.0 | 14.5 | 0.00 | 0.00 | 0.00 | 23 | 1010.9 |
| 20260502225038 | 22 | 136 | 11.3 | 17.7 | 0.00 | 0.00 | 0.00 | 23 | 1011.0 |
| 20260502224534 | 21 | 119 | 19.3 | 41.8 | 0.00 | 0.00 | 0.00 | 25 | 1011.1 |
| 20260502224031 | 21 | 159 | 12.9 | 27.4 | 0.00 | 0.00 | 0.00 | 25 | 1011.0 |
| 20260502223529 | 22 | 170 | 12.9 | 30.6 | 0.00 | 0.00 | 0.00 | 24 | 1011.1 |
| 20260502223027 | 21 | 150 | 3.2 | 8.0 | 0.00 | 0.00 | 0.00 | 25 | 1011.4 |
| 20260502222524 | 21 | 242 | 11.3 | 16.1 | 0.00 | 0.00 | 0.00 | 27 | 1011.6 |
| 20260502222020 | 21 | 180 | 1.6 | 11.3 | 0.00 | 0.00 | 0.00 | 25 | 1011.8 |
| 20260502221516 | 20 | 155 | 8.0 | 22.5 | 0.00 | 0.00 | 0.00 | 29 | 1011.9 |
| 20260502221014 | 20 | 157 | 20.9 | 57.9 | 0.00 | 0.00 | 0.00 | 31 | 1012.1 |
| 20260502220509 | 19 | 132 | 37.0 | 72.4 | 0.00 | 0.00 | 0.00 | 33 | 1012.1 |
| 20260502220006 | 18 | 134 | 57.9 | 91.7 | 0.00 | 0.00 | 0.00 | 34 | 1011.6 |
| 20260502215504 | 22 | 129 | 22.5 | 24.1 | 0.00 | 0.00 | 0.00 | 24 | 1011.9 |
| 20260502215000 | 21 | 247 | 8.0 | 24.1 | 0.00 | 0.00 | 0.00 | 25 | 1011.8 |
| 20260502214457 | 22 | 253 | 6.4 | 16.1 | 0.00 | 0.00 | 0.00 | 23 | 1011.8 |
| 20260502213954 | 22 | 77 | 22.5 | 29.0 | 0.00 | 0.00 | 0.00 | 23 | 1011.8 |
| 20260502213451 | 22 | 97 | 12.9 | 25.7 | 0.00 | 0.00 | 0.00 | 23 | 1011.7 |
| 20260502212949 | 22 | 94 | 14.5 | 27.4 | 0.00 | 0.00 | 0.00 | 23 | 1011.7 |
| 20260502212448 | 22 | 74 | 14.5 | 30.6 | 0.00 | 0.00 | 0.00 | 22 | 1011.6 |
| 20260502211945 | 21 | 42 | 25.7 | 51.5 | 0.00 | 0.00 | 0.00 | 24 | 1011.6 |
| 20260502211440 | 21 | 84 | 25.7 | 57.9 | 0.00 | 0.00 | 0.00 | 26 | 1011.7 |
| 20260502210938 | 22 | 95 | 9.7 | 11.3 | 0.00 | 0.00 | 0.00 | 21 | 1011.8 |
| 20260502210434 | 22 | 135 | 4.8 | 4.8 | 0.00 | 0.00 | 0.00 | 21 | 1011.3 |
| 20260502205932 | 23 | 288 | 8.0 | 8.0 | 0.00 | 0.00 | 0.00 | 21 | 1011.6 |
| 20260502205428 | 23 | 294 | 6.4 | 11.3 | 0.00 | 0.00 | 0.00 | 21 | 1011.6 |
| 20260502204925 | 22 | 343 | 8.0 | 16.1 | 0.00 | 0.00 | 0.00 | 21 | 1011.7 |
| 20260502204422 | 23 | 356 | 9.7 | 19.3 | 0.00 | 0.00 | 0.00 | 21 | 1011.7 |
| 20260502203920 | 23 | 75 | 6.4 | 12.9 | 0.00 | 0.00 | 0.00 | 21 | 1011.9 |
| 20260502203417 | 23 | 3 | 8.0 | 14.5 | 0.00 | 0.00 | 0.00 | 20 | 1011.8 |
| 20260502202913 | 23 | 8 | 8.0 | 16.1 | 0.00 | 0.00 | 0.00 | 21 | 1011.7 |
| 20260502202410 | 23 | 327 | 8.0 | 16.1 | 0.00 | 0.00 | 0.00 | 20 | 1011.9 |
| 20260502201908 | 23 | 352 | 11.3 | 14.5 | 0.00 | 0.00 | 0.00 | 20 | 1011.7 |
| 20260502201404 | 23 | 298 | 9.7 | 12.9 | 0.00 | 0.00 | 0.00 | 21 | 1011.9 |
| 20260502200901 | 23 | 206 | 8.0 | 16.1 | 0.00 | 0.00 | 0.00 | 21 | 1011.9 |
| 20260502200356 | 23 | 262 | 9.7 | 11.3 | 0.00 | 0.00 | 0.00 | 20 | 1012.1 |
| 20260502195854 | 23 | 305 | 6.4 | 14.5 | 0.00 | 0.00 | 0.00 | 21 | 1011.8 |
| 20260502195351 | 23 | 100 | 3.2 | 6.4 | 0.00 | 0.00 | 0.00 | 21 | 1012.2 |
| 20260502194847 | 22 | 270 | 4.8 | 14.5 | 0.00 | 0.00 | 0.00 | 21 | 1012.1 |
| 20260502194344 | 23 | 289 | 4.8 | 6.4 | 0.00 | 0.00 | 0.00 | 20 | 1012.3 |
| 20260502193840 | 23 | 288 | 6.4 | 11.3 | 0.00 | 0.00 | 0.00 | 21 | 1012.2 |
| 20260502193338 | 23 | 340 | 0.0 | 11.3 | 0.00 | 0.00 | 0.00 | 21 | 1012.2 |
| 20260502192833 | 23 | 255 | 19.3 | 20.9 | 0.00 | 0.00 | 0.00 | 21 | 1012.3 |
| 20260502192330 | 25 | 197 | 8.0 | 9.7 | 0.00 | 0.00 | 0.00 | 19 | 1012.6 |
| 20260502191827 | 24 | 182 | 4.8 | 11.3 | 0.00 | 0.00 | 0.00 | 20 | 1012.3 |
| 20260502191325 | 23 | 289 | 4.8 | 11.3 | 0.00 | 0.00 | 0.00 | 21 | 1012.5 |
| 20260502190822 | 22 | 78 | 3.2 | 14.5 | 0.00 | 0.00 | 0.00 | 22 | 1012.6 |
| 20260502190320 | 22 | 312 | 12.9 | 19.3 | 0.00 | 0.00 | 0.00 | 21 | 1012.5 |
| 20260502185815 | 22 | 18 | 0.0 | 11.3 | 0.00 | 0.00 | 0.00 | 21 | 1012.6 |
| 20260502185311 | 22 | 28 | 8.0 | 11.3 | 0.00 | 0.00 | 0.00 | 21 | 1012.7 |
| 20260502184808 | 23 | 328 | 4.8 | 11.3 | 0.00 | 0.00 | 0.00 | 20 | 1012.6 |
| 20260502184303 | 22 | 344 | 0.0 | 8.0 | 0.00 | 0.00 | 0.00 | 20 | 1012.6 |
| 20260502183800 | 22 | 294 | 9.7 | 12.9 | 0.00 | 0.00 | 0.00 | 20 | 1012.9 |
| 20260502183256 | 21 | 337 | 1.6 | 9.7 | 0.00 | 0.00 | 0.00 | 19 | 1012.9 |
| 20260502182752 | 21 | 285 | 4.8 | 11.3 | 0.00 | 0.00 | 0.00 | 19 | 1013.0 |
| 20260502182247 | 21 | 135 | 4.8 | 8.0 | 0.00 | 0.00 | 0.00 | 19 | 1013.3 |
| 20260502181743 | 21 | 94 | 4.8 | 4.8 | 0.00 | 0.00 | 0.00 | 18 | 1013.3 |
| 20260502181238 | 21 | 248 | 3.2 | 4.8 | 0.00 | 0.00 | 0.00 | 19 | 1013.4 |
| 20260502180734 | 20 | 324 | 8.0 | 14.5 | 0.00 | 0.00 | 0.00 | 20 | 1013.4 |
| 20260502180232 | 21 | 344 | 4.8 | 6.4 | 0.00 | 0.00 | 0.00 | 20 | 1013.3 |
| 20260502170156 | 17 | 311 | 3.2 | 6.4 | 0.00 | 0.00 | 0.00 | 28 | 1013.8 |
| 20260502164143 | 15 | 34 | 3.2 | 6.4 | 0.00 | 0.00 | 0.00 | 29 | 1013.9 |
| 20260502163638 | 15 | 279 | 0.0 | 6.4 | 0.00 | 0.00 | 0.00 | 28 | 1013.9 |
| 20260502163135 | 15 | 337 | 6.4 | 8.0 | 0.00 | 0.00 | 0.00 | 30 | 1013.8 |
| 20260502162632 | 15 | 14 | 8.0 | 8.0 | 0.00 | 0.00 | 0.00 | 30 | 1013.7 |
| 20260502162129 | 14 | 174 | 1.6 | 8.0 | 0.00 | 0.00 | 0.00 | 33 | 1014.1 |
| 20260502161627 | 14 | 225 | 3.2 | 8.0 | 0.00 | 0.00 | 0.00 | 29 | 1013.7 |
| 20260502161123 | 14 | 286 | 1.6 | 6.4 | 0.00 | 0.00 | 0.00 | 25 | 1013.9 |
| 20260502160621 | 13 | 251 | 0.0 | 3.2 | 0.00 | 0.00 | 0.00 | 25 | 1013.7 |
| 20260502160120 | 13 | 180 | 0.0 | 3.2 | 0.00 | 0.00 | 0.00 | 24 | 1013.7 |
| 20260502152034 | 11 | 135 | 0.0 | 3.2 | 0.00 | 0.00 | 0.00 | 31 | 1013.7 |
| 20260502151531 | 11 | 131 | 4.8 | 4.8 | 0.00 | 0.00 | 0.00 | 31 | 1013.6 |
| 20260502151028 | 11 | 187 | 1.6 | 1.6 | 0.00 | 0.00 | 0.00 | 32 | 1013.8 |
| 20260502150526 | 10 | 237 | 0.0 | 0.0 | 0.00 | 0.00 | 0.00 | 33 | 1013.7 |
| 20260502130410 | 6 | 90 | 6.4 | 8.0 | 0.00 | 0.00 | 0.00 | 34 | 1013.0 |
| 20260502123353 | 7 | 163 | 4.8 | 4.8 | 0.00 | 0.00 | 0.00 | 35 | 1012.9 |
| 20260502122850 | 7 | 117 | 3.2 | 4.8 | 0.00 | 0.00 | 0.00 | 35 | 1012.8 |
| 20260502122346 | 7 | 98 | 3.2 | 6.4 | 0.00 | 0.00 | 0.00 | 35 | 1013.0 |
| 20260502121845 | 8 | 90 | 0.0 | 4.8 | 0.00 | 0.00 | 0.00 | 32 | 1012.8 |
| 20260502121342 | 6 | 93 | 4.8 | 4.8 | 0.00 | 0.00 | 0.00 | 32 | 1012.7 |
| 20260502120839 | 7 | 114 | 0.0 | 6.4 | 0.00 | 0.00 | 0.00 | 29 | 1012.9 |
| 20260502120335 | 7 | 109 | 6.4 | 8.0 | 0.00 | 0.00 | 0.00 | 30 | 1012.5 |
| 20260502115832 | 8 | 103 | 8.0 | 8.0 | 0.00 | 0.00 | 0.00 | 34 | 1012.6 |
| 20260502115330 | 7 | 74 | 6.4 | 8.0 | 0.00 | 0.00 | 0.00 | 31 | 1012.7 |
| 20260502114826 | 7 | 97 | 6.4 | 9.7 | 0.00 | 0.00 | 0.00 | 32 | 1012.7 |
| 20260502114323 | 7 | 120 | 9.7 | 11.3 | 0.00 | 0.00 | 0.00 | 34 | 1012.7 |
| 20260502113820 | 7 | 123 | 8.0 | 8.0 | 0.00 | 0.00 | 0.00 | 36 | 1012.9 |
| 20260502113317 | 7 | 106 | 6.4 | 6.4 | 0.00 | 0.00 | 0.00 | 40 | 1012.9 |
| 20260502112816 | 7 | 143 | 4.8 | 4.8 | 0.00 | 0.00 | 0.00 | 43 | 1012.7 |
| 20260502112313 | 6 | 116 | 6.4 | 6.4 | 0.00 | 0.00 | 0.00 | 38 | 1012.7 |
| 20260502111810 | 6 | 120 | 8.0 | 9.7 | 0.00 | 0.00 | 0.00 | 38 | 1012.6 |
| 20260502111307 | 7 | 81 | 4.8 | 6.4 | 0.00 | 0.00 | 0.00 | 43 | 1012.7 |
| 20260502110805 | 8 | 263 | 0.0 | 3.2 | 0.00 | 0.00 | 0.00 | 44 | 1012.7 |
| 20260502110303 | 7 | 299 | 3.2 | 3.2 | 0.00 | 0.00 | 0.00 | 46 | 1012.5 |
| 20260502105800 | 7 | 186 | 4.8 | 6.4 | 0.00 | 0.00 | 0.00 | 44 | 1012.8 |
| 20260502105256 | 6 | 213 | 8.0 | 8.0 | 0.00 | 0.00 | 0.00 | 39 | 1012.8 |
| 20260502104754 | 7 | 161 | 4.8 | 4.8 | 0.00 | 0.00 | 0.00 | 39 | 1012.7 |
| 20260502104251 | 6 | 182 | 4.8 | 4.8 | 0.00 | 0.00 | 0.00 | 44 | 1012.7 |
| 20260502103749 | 6 | 180 | 3.2 | 8.0 | 0.00 | 0.00 | 0.00 | 42 | 1012.9 |
| 20260502103246 | 8 | 297 | 4.8 | 8.0 | 0.00 | 0.00 | 0.00 | 36 | 1012.6 |
| 20260502102743 | 7 | 0 | 6.4 | 6.4 | 0.00 | 0.00 | 0.00 | 31 | 1012.8 |
| 20260502102239 | 10 | 114 | 0.0 | 3.2 | 0.00 | 0.00 | 0.00 | 25 | 1012.7 |
| 20260502101738 | 10 | 161 | 3.2 | 4.8 | 0.00 | 0.00 | 0.00 | 25 | 1012.6 |
| 20260502101236 | 10 | 99 | 0.0 | 6.4 | 0.00 | 0.00 | 0.00 | 25 | 1012.3 |
| 20260502100733 | 10 | 93 | 4.8 | 6.4 | 0.00 | 0.00 | 0.00 | 25 | 1012.3 |
| 20260502100232 | 9 | 125 | 4.8 | 4.8 | 0.00 | 0.00 | 0.00 | 25 | 1012.3 |
| 20260502091206 | 11 | 116 | 6.4 | 8.0 | 0.00 | 0.00 | 0.00 | 22 | 1013.0 |
| 20260502090703 | 10 | 108 | 8.0 | 8.0 | 0.00 | 0.00 | 0.00 | 26 | 1012.9 |
| 20260502090200 | 10 | 77 | 8.0 | 11.3 | 0.00 | 0.00 | 0.00 | 29 | 1013.3 |
| 20260502071055 | 14 | 156 | 12.9 | 16.1 | 0.00 | 0.00 | 0.00 | 19 | 1013.6 |
| 20260502070554 | 13 | 131 | 11.3 | 12.9 | 0.00 | 0.00 | 0.00 | 21 | 1013.6 |
| 20260502070051 | 12 | 149 | 9.7 | 11.3 | 0.00 | 0.00 | 0.00 | 22 | 1013.5 |
| 20260502065550 | 12 | 122 | 11.3 | 11.3 | 0.00 | 0.00 | 0.00 | 22 | 1013.4 |
| 20260502065047 | 13 | 101 | 8.0 | 8.0 | 0.00 | 0.00 | 0.00 | 22 | 1013.4 |
| 20260502064545 | 14 | 134 | 8.0 | 8.0 | 0.00 | 0.00 | 0.00 | 22 | 1013.1 |
| 20260502064042 | 14 | 120 | 6.4 | 8.0 | 0.00 | 0.00 | 0.00 | 22 | 1013.3 |
| 20260502063540 | 15 | 157 | 3.2 | 4.8 | 0.00 | 0.00 | 0.00 | 22 | 1013.3 |
| 20260502063037 | 15 | 144 | 4.8 | 4.8 | 0.00 | 0.00 | 0.00 | 22 | 1013.4 |
| 20260502062534 | 14 | 130 | 4.8 | 8.0 | 0.00 | 0.00 | 0.00 | 23 | 1013.5 |
| 20260502062032 | 15 | 170 | 4.8 | 4.8 | 0.00 | 0.00 | 0.00 | 23 | 1013.4 |
| 20260502061530 | 15 | 162 | 3.2 | 4.8 | 0.00 | 0.00 | 0.00 | 23 | 1013.4 |
| 20260502061027 | 13 | 182 | 6.4 | 6.4 | 0.00 | 0.00 | 0.00 | 24 | 1013.1 |
| 20260502060522 | 14 | 174 | 4.8 | 6.4 | 0.00 | 0.00 | 0.00 | 24 | 1013.3 |
| 20260502060019 | 15 | 196 | 6.4 | 8.0 | 0.00 | 0.00 | 0.00 | 24 | 1013.3 |
| 20260502055516 | 15 | 184 | 6.4 | 6.4 | 0.00 | 0.00 | 0.00 | 25 | 1013.3 |
| 20260502055015 | 13 | 144 | 4.8 | 8.0 | 0.00 | 0.00 | 0.00 | 26 | 1013.5 |
| 20260502054513 | 13 | 180 | 6.4 | 8.0 | 0.00 | 0.00 | 0.00 | 27 | 1013.4 |
| 20260502054010 | 13 | 182 | 4.8 | 9.7 | 0.00 | 0.00 | 0.00 | 28 | 1013.5 |
| 20260502053507 | 14 | 213 | 4.8 | 9.7 | 0.00 | 0.00 | 0.00 | 27 | 1013.3 |
| 20260502053005 | 13 | 215 | 4.8 | 8.0 | 0.00 | 0.00 | 0.00 | 28 | 1013.3 |
| 20260502052503 | 13 | 231 | 4.8 | 9.7 | 0.00 | 0.00 | 0.00 | 29 | 1013.4 |
| 20260502052001 | 13 | 198 | 8.0 | 8.0 | 0.00 | 0.00 | 0.00 | 29 | 1013.5 |
| 20260502051459 | 13 | 184 | 6.4 | 8.0 | 0.00 | 0.00 | 0.00 | 27 | 1013.5 |
| 20260502050955 | 14 | 282 | 6.4 | 8.0 | 0.00 | 0.00 | 0.00 | 23 | 1013.5 |